Wetbulb
48.16 47.92 47.70 47.39 47.16 46.58 45.12 44.18 43.95 44.44 43.52 42.82 41.03 39.89 39.84 39.43 39.29 38.70 37.86 37.14 35.78 36.68 37.11 37.14 36.74 38.92 39.32 38.34 38.11 37.62 37.49 37.49 34.92 37.86 38.79 41.39 42.58 43.42 44.33 45.82 46.48 46.04 49.27
46.01 45.37 45.05 47.26 45.90 43.39 43.27 43.87 44.28 42.93 42.73 41.95 40.77 39.28 38.49 38.43 39.01 37.27 36.40 36.66 36.85 35.51 35.63 36.02 35.34 35.90 35.63 37.06 37.53 36.94 37.50 37.37 36.24 33.37 35.33 38.50 39.32 43.41 43.83 43.60 45.53 45.03 47.53
44.83 44.02 45.38 44.94 43.74 43.09 43.15 42.85 42.40 41.57 42.22 40.21 39.39 37.92 37.51 37.47 37.12 37.48 37.34 37.23 35.85 35.99 35.90 35.75 35.86 36.35 35.93 36.34 35.57 34.71 36.26 37.37 37.67 35.41 35.41 37.22 39.04 40.89 40.64 42.13 43.40 45.78 44.79
44.96 42.65 44.18 43.28 43.03 42.47 42.44 42.39 41.57 41.95 41.18 40.32 39.15 38.07 37.77 37.09 37.67 37.55 37.11 36.91 36.70 36.51 36.92 37.20 35.93 36.15 35.49 34.87 34.41 34.74 34.77 34.93 35.96 36.45 36.03 35.19 36.45 38.87 39.92 39.54 40.11 43.10 44.12
42.52 42.26 42.70 42.62 42.57 41.33 41.66 41.55 41.57 40.88 40.24 38.99 38.32 38.19 38.43 37.83 38.55 38.26 37.52 37.06 37.32 37.29 38.00 37.57 37.87 37.38 36.36 36.08 35.92 37.08 36.58 35.93 35.80 34.84 35.12 34.82 33.92 36.70 36.37 39.29 39.54 41.23 43.64
41.85 42.04 41.52 40.52 39.64 39.24 39.16 39.76 39.37 38.76 38.38 38.13 37.27 36.96 37.36 37.92 37.01 36.33 36.35 36.19 36.45 36.55 36.33 37.40 36.72 37.24 36.48 35.13 34.60 34.79 35.08 34.82 33.67 36.30 34.37 34.02 34.04 36.73 38.29 38.06 39.07 37.94 38.72
41.02 40.45 39.05 38.56 37.68 37.90 37.51 36.67 36.50 36.44 36.52 36.95 36.96 37.32 37.92 38.96 36.95 36.79 36.23 36.11 35.29 34.72 34.95 34.96 34.97 36.39 36.46 35.74 35.84 35.53 35.13 34.72 32.62 34.83 34.95 34.86 34.72 37.06 38.97 37.52 37.98 38.20 39.75
39.08 37.61 37.70 37.06 36.81 36.79 36.24 35.36 35.48 35.41 36.42 36.57 37.25 37.39 37.82 38.67 36.47 36.00 35.61 37.38 36.99 35.86 35.15 35.46 34.47 34.04 34.75 35.27 35.25 34.33 34.94 36.67 37.18 37.13 36.56 37.00 37.77 38.04 38.70 39.24 38.71 40.14 40.81
38.49 37.22 36.89 37.43 36.35 36.20 35.21 35.16 35.29 35.32 35.47 36.80 36.55 37.23 37.78 38.47 36.39 36.05 35.35 35.98 36.21 35.87 36.21 36.94 36.58 35.41 34.96 34.42 33.77 33.42 34.63 35.76 37.38 36.25 35.98 35.99 35.90 35.74 36.58 37.45 36.84 35.83 36.37
36.90 37.23 38.15 38.14 36.98 35.83 36.44 36.14 36.04 35.45 35.34 35.71 36.28 37.82 36.69 37.63 36.20 35.64 35.46 35.57 35.64 35.55 36.45 37.19 35.03 35.69 33.33 33.83 34.50 33.58 31.94 33.61 34.67 36.69 37.91 36.64 36.09 36.76 34.77 37.21 37.73 35.29 35.75
38.11 37.45 37.15 37.21 36.69 37.21 36.91 36.82 36.24 34.99 35.00 35.11 35.42 36.26 35.96 35.88 36.28 34.79 34.90 35.20 35.20 35.16 35.36 36.59 37.45 34.70 34.48 34.68 34.23 34.02 32.06 32.47 32.22 33.52 35.24 36.88 38.17 39.01 38.46 37.50 37.91 37.05 36.89
37.55 36.70 36.36 36.18 36.07 36.42 36.29 35.75 35.26 34.79 34.10 34.17 34.61 34.32 35.67 36.50 34.42 34.41 34.34 34.63 34.99 35.53 35.37 36.31 37.45 34.98 34.84 34.37 34.75 34.96 34.16 33.04 32.30 32.57 32.60 33.47 35.15 36.42 38.87 38.57 39.19 39.66 42.03
36.98 36.20 36.02 36.14 35.77 36.31 35.11 34.40 34.34 33.62 33.25 32.81 32.07 33.42 34.48 36.19 36.69 33.53 34.04 33.98 34.43 35.21 37.53 36.11 34.98 35.15 35.43 36.52 36.67 35.12 35.32 40.81 38.33 34.53 32.86 34.43 34.36 37.53 37.96 38.65 39.49 40.12 41.45
37.06 37.07 36.94 35.66 34.87 35.59 35.27 34.68 33.57 32.34 31.86 31.48 30.70 31.09 32.84 33.68 33.90 34.61 34.25 35.52 34.34 36.32 36.23 38.36 35.03 32.96 34.17 34.79 36.93 38.93 42.60 43.00 39.68 37.87 36.97 37.59 39.60 38.02 37.77 39.39 38.34 39.03 38.96
37.38 34.72 33.91 33.78 33.78 34.04 35.00 34.49 32.99 33.10 31.38 29.81 30.22 31.00 30.81 30.23 30.45 31.43 32.56 33.86 33.97 33.99 35.09 37.95 37.16 36.44 34.58 34.41 34.89 35.66 37.36 40.56 42.22 42.17 40.59 38.85 39.01 39.53 38.23 41.17 40.99 40.47 37.53
36.07 33.85 33.31 34.58 34.95 35.71 35.02 34.67 32.75 31.47 31.60 31.24 31.02 30.66 31.63 30.86 30.62 30.58 30.79 31.89 32.42 31.92 35.17 33.44 33.38 33.91 33.13 33.28 33.77 33.97 35.65 35.25 36.81 40.81 42.45 41.84 41.27 40.31 40.51 40.94 42.24 42.24 39.96
35.95 34.92 36.13 34.42 34.45 35.06 35.46 34.43 34.23 36.02 33.41 32.26 31.61 31.64 31.40 31.17 30.72 30.64 30.52 31.60 31.97 32.41 31.61 31.53 31.48 32.14 32.52 33.14 33.37 33.58 33.70 35.27 36.62 36.05 38.09 39.18 41.03 41.43 41.96 41.65 41.40 41.80 40.72
37.51 30.87 37.76 34.90 35.22 36.56 35.93 35.18 35.00 34.21 33.40 33.84 33.92 32.21 31.53 31.74 31.61 31.48 31.26 32.30 32.40 31.98 30.18 29.64 29.56 30.28 30.58 30.75 31.74 32.35 33.33 33.98 34.38 34.35 34.87 35.15 36.05 37.20 39.23 40.54 40.35 40.66 41.84
36.98 37.14 38.49 38.56 38.48 36.36 38.00 37.82 37.24 36.57 36.22 35.35 36.52 34.05 33.40 31.77 31.88 31.87 31.52 30.43 29.23 28.63 28.82 28.71 29.37 29.45 29.15 29.12 29.63 31.07 31.73 32.18 32.86 33.37 33.97 33.74 33.61 34.18 34.94 35.94 37.52 35.33 36.46
39.37 31.72 34.09 39.28 39.17 38.78 38.52 37.43 36.94 36.01 36.00 35.67 35.28 33.98 34.26 33.26 32.95 32.81 32.79 31.77 30.77 30.01 30.18 29.14 29.55 29.42 29.54 29.98 29.83 29.95 29.87 29.64 30.21 31.16 31.99 32.91 33.64 33.50 33.47 33.40 34.57 35.93 36.77
40.18 39.99 33.36 39.56 38.99 38.80 38.29 37.53 37.08 37.07 36.57 36.18 36.03 35.09 30.45 31.06 32.05 31.94 31.48 31.34 30.46 29.98 29.98 30.26 30.77 30.59 30.97 30.66 30.55 30.06 28.80 28.66 28.67 28.68 28.91 30.23 32.08 31.96 33.27 34.13 33.53 33.64 35.29
40.03 39.89 39.58 39.18 39.09 38.54 37.81 38.86 38.15 37.55 36.84 36.09 35.97 35.07 31.07 32.68 31.83 31.54 31.34 31.84 31.27 31.14 31.65 30.82 30.63 30.70 30.65 30.30 30.38 29.65 29.31 29.18 29.33 28.81 28.42 28.39 28.90 30.38 32.27 32.79 33.00 33.85 33.78
40.37 39.85 39.95 39.89 39.24 36.18 39.16 39.11 38.63 37.91 37.00 36.66 36.13 34.91 34.18 32.43 31.68 31.44 31.43 32.14 32.02 31.44 31.58 31.00 30.75 30.19 30.96 30.62 30.20 30.23 29.58 29.46 29.64 29.93 28.82 28.34 27.88 28.55 29.93 31.11 32.19 31.96 32.71
40.83 40.44 40.00 40.03 39.71 38.50 39.28 38.01 38.45 35.53 35.91 36.00 35.91 35.63 35.32 33.45 32.92 32.71 32.02 32.30 31.52 31.61 31.69 31.51 30.38 29.87 29.94 29.88 30.01 29.53 29.58 28.86 28.98 29.25 29.50 28.71 27.92 27.74 28.66 29.58 31.06 32.10 32.13
41.35 40.59 40.45 40.12 39.73 39.27 38.68 38.52 37.74 37.22 36.61 35.75 35.51 35.22 35.07 35.14 33.95 34.50 34.13 32.67 31.65 30.93 30.41 31.01 30.95 30.14 29.83 28.99 28.86 29.01 27.91 26.94 27.78 27.78 28.93 28.47 28.57 27.88 28.03 29.63 30.14 30.29 31.37
40.82 40.01 39.86 40.21 40.01 39.73 38.93 38.26 36.83 36.85 37.10 35.50 35.32 35.91 35.14 34.40 34.08 34.48 33.07 31.96 30.76 30.37 30.93 30.92 29.78 29.79 29.23 28.72 28.34 27.16 26.66 26.40 26.89 26.85 27.95 28.17 28.66 29.04 28.27 28.27 28.73 29.00 29.30
MSLP
1023.41 1023.40 1023.20 1023.10 1023.14 1023.07 1022.90 1022.75 1022.59 1022.47 1022.33 1022.32 1022.36 1022.26 1021.80 1021.51 1021.25 1021.25 1020.98 1020.91 1020.71 1020.21 1019.99 1019.65 1019.29 1018.91 1018.34 1018.16 1018.02 1017.82 1017.28 1017.06 1016.15 1015.40 1015.19 1014.99 1014.54 1014.17 1013.71 1013.49 1013.59 1013.50 1013.01
1023.86 1023.82 1023.62 1023.16 1023.17 1023.23 1023.00 1022.74 1022.59 1022.49 1022.50 1022.42 1022.18 1022.07 1021.86 1021.53 1021.17 1021.01 1020.79 1020.44 1020.02 1019.71 1019.39 1019.06 1018.89 1018.65 1018.22 1017.83 1017.41 1017.01 1016.55 1016.37 1016.01 1015.35 1015.42 1014.98 1014.38 1013.87 1013.69 1013.42 1013.03 1012.93 1012.75
1024.22 1024.19 1023.62 1023.19 1023.29 1023.22 1023.00 1022.75 1022.58 1022.60 1022.36 1022.48 1022.16 1021.98 1021.60 1021.30 1020.93 1020.59 1020.18 1019.84 1019.61 1019.32 1019.02 1018.66 1018.19 1017.60 1017.26 1017.05 1017.01 1016.78 1016.32 1015.57 1015.33 1015.00 1014.40 1014.52 1013.93 1013.32 1013.17 1012.93 1012.50 1011.91 1012.09
1024.34 1024.36 1023.55 1023.34 1023.31 1023.30 1023.05 1022.76 1022.69 1022.56 1022.32 1022.11 1021.94 1021.62 1021.31 1020.97 1020.58 1020.22 1019.88 1019.50 1019.05 1018.55 1018.13 1017.67 1017.42 1016.88 1016.54 1016.38 1016.25 1016.02 1015.71 1015.38 1014.83 1014.30 1013.75 1013.59 1013.59 1012.98 1012.64 1012.19 1011.63 1011.50 1011.06
1024.79 1024.27 1023.78 1023.72 1023.67 1023.57 1023.13 1022.81 1022.68 1022.61 1022.43 1022.17 1021.82 1021.37 1020.93 1020.67 1020.30 1020.01 1019.36 1018.88 1018.34 1017.72 1017.13 1016.65 1016.33 1016.12 1015.92 1015.76 1015.48 1014.91 1014.54 1014.39 1014.01 1013.40 1013.07 1012.76 1012.75 1012.14 1011.81 1011.47 1010.90 1010.76 1010.19
1024.79 1024.31 1024.25 1024.31 1024.15 1023.89 1023.48 1023.13 1022.88 1022.71 1022.36 1022.05 1021.68 1021.24 1020.74 1020.31 1019.88 1019.77 1019.29 1018.61 1017.91 1017.28 1016.57 1016.08 1015.78 1015.42 1015.15 1015.05 1015.00 1014.80 1014.66 1014.10 1013.68 1013.00 1012.15 1011.91 1011.66 1011.35 1010.91 1010.85 1010.62 1010.40 1009.64
1025.00 1025.13 1025.05 1024.79 1024.56 1024.13 1023.74 1023.41 1023.06 1022.74 1022.44 1021.95 1021.47 1020.87 1020.36 1019.83 1019.66 1019.25 1018.75 1018.00 1017.27 1016.71 1016.07 1015.47 1015.04 1014.77 1014.57 1014.26 1013.92 1013.76 1013.51 1013.18 1012.96 1012.72 1011.76 1011.13 1010.98 1010.80 1010.52 1010.24 1010.26 1009.96 1009.38
1025.53 1025.60 1025.36 1025.14 1024.68 1024.41 1024.04 1023.72 1023.21 1022.88 1022.22 1021.77 1021.14 1020.66 1020.04 1019.66 1019.49 1018.93 1018.37 1017.46 1016.60 1016.09 1015.62 1015.10 1014.60 1014.25 1013.93 1013.86 1013.48 1012.90 1012.36 1011.66 1011.22 1011.26 1010.99 1010.50 1010.22 1010.37 1010.23 1009.99 1010.31 1009.87 1009.55
1025.89 1025.76 1025.57 1025.25 1024.83 1024.57 1024.25 1023.77 1023.40 1022.89 1022.17 1021.47 1021.03 1020.33 1019.80 1019.45 1019.19 1018.71 1018.11 1017.11 1016.26 1015.57 1014.97 1014.22 1013.86 1013.45 1013.28 1013.30 1012.87 1012.16 1011.42 1010.77 1010.04 1009.87 1009.83 1009.82 1009.76 1009.86 1010.14 1010.29 1009.94 1009.76 1009.04
1026.23 1025.99 1025.72 1025.27 1024.98 1024.66 1024.27 1023.78 1023.36 1022.85 1022.23 1021.66 1020.95 1020.34 1019.78 1019.40 1019.00 1018.62 1017.91 1016.96 1015.97 1015.31 1014.63 1013.73 1013.47 1013.29 1013.02 1012.59 1011.99 1011.26 1010.27 1009.35 1009.10 1008.74 1008.41 1008.60 1008.84 1008.99 1009.48 1009.82 1009.30 1009.02 1008.75
1026.70 1026.32 1025.93 1025.66 1025.26 1024.76 1024.36 1023.95 1023.50 1023.00 1022.37 1021.67 1021.07 1020.54 1020.04 1019.62 1019.01 1018.63 1017.81 1016.96 1016.06 1015.14 1014.43 1013.72 1013.11 1012.78 1012.57 1012.04 1011.38 1010.42 1008.92 1007.83 1007.41 1007.26 1006.94 1006.99 1007.08 1007.26 1007.79 1008.46 1008.85 1008.85 1008.28
1026.79 1026.40 1026.17 1025.94 1025.60 1025.03 1024.61 1024.25 1023.75 1023.23 1022.56 1021.90 1021.27 1020.70 1020.12 1019.46 1019.09 1018.60 1017.86 1016.98 1016.12 1015.19 1014.29 1013.72 1013.03 1012.56 1011.86 1011.02 1010.13 1008.97 1007.41 1006.53 1006.01 1005.57 1005.11 1005.32 1005.59 1005.96 1006.34 1006.98 1007.51 1007.79 1007.75
1026.78 1026.50 1026.31 1025.98 1025.64 1025.26 1024.92 1024.57 1024.07 1023.62 1023.01 1022.46 1021.84 1021.12 1020.29 1019.57 1019.09 1018.59 1017.84 1017.01 1016.06 1015.18 1014.36 1013.67 1012.91 1012.14 1011.34 1010.27 1009.51 1008.33 1006.73 1005.77 1005.28 1004.86 1004.37 1004.08 1004.44 1004.94 1005.57 1006.09 1006.55 1006.90 1006.92
1026.68 1026.53 1026.41 1026.22 1025.96 1025.53 1025.15 1024.95 1024.66 1024.37 1023.83 1023.24 1022.57 1021.82 1020.99 1020.16 1019.69 1018.95 1018.08 1017.15 1016.21 1015.11 1014.22 1013.40 1012.94 1012.31 1011.50 1010.77 1009.68 1008.59 1007.25 1006.03 1005.45 1005.01 1004.67 1004.22 1003.74 1004.51 1004.87 1005.19 1005.56 1005.89 1006.22
1027.02 1027.44 1027.24 1026.87 1026.43 1025.92 1025.44 1025.36 1025.28 1025.09 1024.97 1024.35 1023.65 1022.84 1021.88 1021.12 1020.66 1019.95 1018.91 1017.76 1016.84 1015.70 1014.42 1013.48 1012.85 1012.13 1011.42 1010.80 1010.10 1009.38 1008.49 1007.32 1006.03 1005.31 1004.93 1004.95 1004.74 1004.61 1004.53 1004.56 1004.71 1005.01 1005.29
1027.38 1027.60 1027.53 1026.86 1026.42 1025.85 1025.49 1025.22 1025.05 1025.01 1024.80 1024.55 1024.12 1023.52 1022.61 1022.04 1021.11 1020.10 1019.08 1017.97 1017.04 1015.73 1014.56 1014.14 1013.58 1013.05 1012.46 1011.72 1010.77 1009.89 1009.22 1008.58 1007.81 1006.75 1005.83 1005.23 1005.01 1005.01 1004.93 1004.78 1004.43 1004.39 1004.78
1027.73 1027.77 1027.29 1027.16 1026.74 1026.03 1025.49 1025.21 1024.55 1024.19 1024.07 1023.96 1023.62 1023.13 1022.70 1021.93 1021.03 1020.16 1019.22 1018.02 1017.13 1016.09 1015.53 1014.96 1014.48 1013.86 1013.16 1012.49 1011.83 1011.15 1010.21 1009.34 1008.78 1008.33 1007.50 1006.85 1006.06 1005.38 1004.94 1004.91 1004.96 1004.93 1005.06
1027.92 1027.96 1027.21 1027.42 1026.89 1026.09 1025.58 1025.16 1024.71 1024.14 1023.59 1023.34 1022.86 1022.62 1022.13 1021.55 1020.90 1020.25 1019.41 1018.17 1017.23 1016.69 1016.41 1015.79 1015.18 1014.57 1013.99 1013.37 1012.60 1011.82 1011.06 1010.39 1009.70 1008.94 1008.42 1008.09 1007.58 1007.02 1006.24 1005.71 1005.69 1005.59 1005.30
1028.08 1027.69 1027.20 1026.89 1026.59 1026.19 1025.45 1024.86 1024.39 1023.92 1023.47 1023.05 1022.27 1022.04 1021.87 1021.56 1020.74 1020.00 1019.39 1018.70 1018.02 1017.42 1016.94 1016.39 1015.83 1015.17 1014.53 1013.95 1013.37 1012.62 1011.86 1011.14 1010.54 1009.91 1009.38 1008.84 1008.33 1007.78 1007.20 1006.82 1006.45 1006.25 1006.10
1028.02 1028.15 1027.60 1026.50 1026.11 1025.80 1025.38 1024.87 1024.42 1024.09 1023.52 1022.93 1022.37 1022.30 1021.84 1021.11 1020.20 1019.79 1019.39 1018.98 1018.43 1017.92 1017.35 1016.70 1016.08 1015.48 1014.86 1014.23 1013.63 1013.04 1012.31 1011.72 1011.17 1010.55 1009.99 1009.48 1009.07 1008.63 1008.03 1007.62 1007.19 1006.67 1006.35
1027.91 1027.50 1027.47 1026.45 1026.11 1025.82 1025.47 1025.01 1024.49 1023.92 1023.44 1022.80 1022.29 1022.18 1022.32 1021.73 1020.94 1020.34 1019.74 1019.13 1018.67 1018.14 1017.49 1016.85 1016.24 1015.69 1015.03 1014.38 1013.78 1013.17 1012.59 1012.14 1011.65 1011.13 1010.67 1010.04 1009.42 1008.72 1008.30 1007.94 1007.55 1007.13 1006.59
1027.84 1027.43 1026.94 1026.51 1026.12 1025.72 1025.38 1024.76 1024.13 1023.68 1023.16 1022.58 1022.11 1021.96 1021.87 1021.48 1020.96 1020.47 1019.83 1019.35 1018.97 1018.41 1017.71 1017.08 1016.37 1015.69 1015.13 1014.58 1014.03 1013.38 1012.74 1012.16 1011.67 1011.30 1010.88 1010.40 1009.79 1009.07 1008.34 1007.81 1007.39 1007.00 1006.71
1027.86 1027.36 1026.76 1026.25 1025.97 1025.68 1024.80 1024.42 1023.86 1023.39 1022.94 1022.51 1022.12 1021.74 1021.39 1021.21 1020.97 1020.37 1019.82 1019.48 1018.84 1018.20 1017.64 1017.05 1016.40 1015.71 1015.16 1014.66 1014.19 1013.60 1012.94 1012.38 1012.01 1011.52 1010.90 1010.38 1009.92 1009.28 1008.63 1007.89 1007.32 1006.92 1006.53
1027.98 1027.29 1026.64 1026.10 1025.78 1025.53 1024.78 1024.39 1023.64 1023.33 1023.03 1022.45 1022.04 1021.60 1021.02 1020.88 1020.63 1020.10 1019.69 1019.17 1018.65 1018.17 1017.57 1016.87 1016.23 1015.63 1015.05 1014.55 1014.02 1013.52 1013.05 1012.78 1012.35 1011.61 1010.95 1010.20 1009.65 1009.30 1008.72 1007.98 1007.27 1006.82 1006.45
1027.73 1027.14 1026.49 1025.89 1025.48 1025.19 1024.77 1024.21 1023.71 1023.35 1022.77 1022.37 1022.09 1021.52 1021.04 1020.43 1019.97 1019.40 1019.19 1018.85 1018.43 1017.82 1017.14 1016.62 1016.02 1015.43 1014.83 1014.43 1013.85 1013.33 1013.01 1012.59 1012.10 1011.61 1010.79 1010.12 1009.30 1008.84 1008.41 1007.81 1007.27 1006.79 1006.31
1027.51 1026.93 1026.37 1025.77 1025.18 1024.87 1024.43 1024.12 1023.79 1023.18 1022.58 1022.30 1021.82 1021.39 1020.91 1020.33 1019.67 1019.23 1018.92 1018.53 1018.06 1017.58 1016.91 1016.23 1015.64 1015.15 1014.62 1013.99 1013.51 1013.22 1012.64 1012.15 1011.60 1011.14 1010.58 1009.82 1009.02 1008.32 1007.98 1007.60 1007.13 1006.68 1006.17
Wind_Speed
6 8 10 10 8 8 8 9 9 9 10 10 10 11 12 10 9 8 10 9 11 11 11 10 12 14 10 7 9 9 10 10 12 12 10 13 17 15 14 9 8 10 10
7 8 9 9 9 8 8 9 8 9 9 11 10 11 10 11 10 10 10 11 12 12 12 12 12 10 13 12 9 12 12 12 12 16 11 12 14 16 13 15 12 9 12
8 8 11 10 9 10 7 8 7 7 8 9 10 10 11 10 11 11 11 12 11 11 11 12 15 13 13 11 11 10 12 10 11 12 12 11 13 12 12 13 13 12 9
9 10 11 10 9 9 9 7 8 9 10 10 10 11 9 9 10 10 11 11 11 12 14 15 14 15 15 14 12 13 12 12 13 11 11 10 12 12 10 11 11 9 9
10 10 11 11 10 11 11 9 10 8 8 9 10 10 10 9 7 12 13 13 13 15 15 15 14 15 20 16 11 14 14 12 12 11 12 11 10 12 12 10 12 10 12
9 11 12 12 11 11 10 11 10 10 5 10 9 10 10 7 9 13 14 12 14 15 14 15 14 18 17 19 20 21 17 14 13 14 11 12 14 14 11 9 9 8 12
10 12 11 12 11 11 11 11 10 9 9 8 9 10 10 10 11 17 19 12 11 11 11 10 9 9 12 13 15 16 19 21 20 16 16 15 14 14 13 12 10 9 11
10 11 11 10 11 11 12 12 10 8 10 8 9 10 10 9 13 18 20 12 10 9 8 9 8 9 9 9 10 13 14 15 15 14 17 19 16 14 13 12 9 12 10
10 10 9 9 10 10 11 11 10 10 9 9 9 9 10 10 13 18 18 11 9 9 10 8 7 7 6 10 11 14 14 14 14 17 21 20 18 17 14 9 9 8 10
9 9 9 10 10 10 10 11 10 10 10 9 10 11 11 13 15 19 19 9 9 7 10 9 6 8 10 12 11 11 13 14 12 14 13 20 21 21 19 16 12 10 8
9 8 9 10 10 10 10 10 11 11 10 11 11 10 12 13 15 19 23 10 8 7 7 8 8 7 13 16 17 13 17 16 15 13 13 12 12 14 12 14 15 12 12
8 9 9 9 8 8 11 10 11 11 11 12 12 10 9 13 15 18 20 19 17 8 7 7 9 15 18 19 17 18 26 18 8 7 9 10 11 12 11 11 14 15 14
9 9 8 9 9 9 9 10 8 11 10 11 10 10 9 10 11 19 16 18 18 10 8 10 15 15 16 13 16 22 13 8 6 5 4 3 8 9 11 12 14 16 17
8 10 10 10 10 10 7 7 8 9 10 10 10 10 10 11 12 13 11 10 15 12 9 7 8 9 8 10 11 12 13 10 8 7 8 6 5 7 8 8 9 10 8
9 9 10 8 9 8 8 7 8 8 7 9 9 9 10 11 12 18 17 12 11 11 11 9 10 11 11 11 10 10 10 13 13 10 6 6 7 6 3 1 2 5 4
8 7 7 7 7 7 8 7 4 2 5 7 11 9 10 13 20 23 23 22 17 18 9 10 9 9 10 12 12 12 9 11 11 12 11 9 7 6 4 2 2 4 4
8 8 6 7 7 8 8 8 10 8 3 5 7 11 14 14 19 22 23 21 13 14 11 10 9 10 10 10 10 10 11 12 12 9 9 11 11 8 6 6 6 5 4
8 3 6 6 6 7 7 7 7 8 9 9 7 8 12 16 14 17 19 15 13 13 11 11 10 10 10 10 11 11 10 9 10 11 8 9 8 8 8 5 3 3 1
7 6 7 5 5 5 6 7 7 8 9 9 9 8 11 16 11 11 13 10 10 10 10 11 10 11 10 10 10 10 11 10 10 8 8 9 8 8 7 5 5 4 3
6 2 7 6 6 7 7 8 8 9 9 9 9 10 12 13 12 11 11 10 10 10 9 10 9 10 10 9 9 10 10 10 10 9 9 8 6 8 7 8 6 5 3
5 6 5 6 7 7 7 8 8 8 9 9 9 8 8 10 9 10 9 10 10 10 11 11 9 9 9 10 10 10 10 9 10 10 10 10 9 9 7 5 6 6 6
6 6 6 7 7 7 8 8 8 9 9 10 10 9 7 9 9 9 11 10 9 10 9 10 10 10 9 10 11 11 10 10 9 9 9 10 10 10 9 8 7 5 5
6 7 7 7 7 8 8 8 9 9 10 11 10 10 9 9 9 10 9 9 9 10 10 10 10 10 10 10 10 10 11 10 10 12 11 9 9 9 10 10 8 8 7
6 8 8 8 7 9 9 10 10 10 10 10 10 10 11 10 7 10 9 9 9 9 10 9 10 13 12 11 10 10 10 11 11 11 14 12 10 10 10 10 9 9 8
7 8 8 9 9 9 10 10 11 11 11 10 10 10 11 11 11 9 9 9 9 10 12 11 9 13 14 17 15 15 16 17 14 14 10 13 13 13 10 9 9 9 9
8 9 8 9 9 9 10 9 10 11 10 10 10 10 12 12 12 10 10 9 9 11 13 10 12 16 17 14 14 17 18 17 15 16 12 11 11 9 9 10 12 9 11
Wind_Direction
343 343 346 348 333 324 325 322 313 325 324 324 330 314 314 320 316 308 304 291 291 294 298 293 284 288 280 266 262 269 269 271 272 270 275 281 271 278 291 274 279 289 289
352 348 332 334 340 332 315 325 331 329 339 332 322 323 321 310 315 305 296 295 290 284 278 275 271 269 266 273 278 275 266 255 259 269 272 279 274 274 272 290 281 264 276
354 340 312 327 330 329 319 324 342 335 320 319 325 313 315 316 304 292 286 286 282 282 284 284 283 277 268 261 260 260 274 271 260 255 262 259 266 265 267 254 266 257 242
351 329 324 337 339 328 312 318 344 332 317 329 329 318 313 311 309 304 308 296 281 277 273 272 268 275 267 261 255 255 257 261 266 258 256 252 268 264 262 269 255 254 244
347 327 346 345 346 340 329 341 328 328 317 326 322 321 319 317 310 320 305 302 295 287 280 274 267 264 268 271 268 264 263 260 257 254 252 255 247 256 251 251 253 255 258
332 352 358 356 344 347 337 335 339 330 337 318 324 321 320 319 309 304 303 297 295 292 289 285 286 286 261 263 262 263 264 267 264 270 252 248 251 252 250 262 260 249 252
0 3 358 1 351 351 353 346 349 340 325 332 316 325 324 315 346 316 320 307 295 284 285 288 284 281 281 270 270 263 257 247 245 257 266 251 250 252 255 258 252 261 266
3 2 3 357 353 9 356 351 349 337 331 328 331 327 318 333 328 324 329 317 306 310 307 293 287 288 278 283 279 273 272 269 250 232 242 254 254 251 257 249 270 267 271
352 0 352 353 348 352 349 352 350 340 338 339 331 323 330 328 331 334 337 323 315 323 305 307 317 299 299 286 286 280 277 274 267 243 243 249 260 256 264 272 237 237 263
348 357 345 357 353 354 352 351 358 354 348 340 338 340 340 336 338 342 340 326 319 322 314 319 256 289 299 280 277 271 271 269 258 252 243 236 237 239 237 248 246 249 245
3 2 5 1 356 355 360 357 360 355 356 358 355 348 346 343 342 343 336 334 328 316 320 325 318 332 308 296 278 277 267 267 260 248 241 235 232 224 220 216 223 233 237
358 7 9 5 358 356 2 0 3 359 1 0 0 357 351 352 357 349 339 335 333 324 311 311 317 319 306 293 288 276 279 287 267 262 228 222 218 213 216 208 213 220 235
7 8 9 8 5 5 2 1 356 3 3 357 358 349 346 350 354 353 344 340 339 329 332 315 306 306 307 316 326 315 313 357 5 358 359 195 199 208 200 204 210 216 230
10 11 8 4 356 5 5 9 6 7 359 358 355 349 346 351 352 349 346 346 344 335 335 342 336 334 333 331 343 344 344 357 2 21 22 26 45 177 189 192 198 201 201
24 11 8 5 6 1 9 15 9 16 10 0 356 346 346 351 350 347 345 343 344 332 320 353 356 354 350 351 350 349 350 353 355 2 31 50 43 47 49 124 156 145 174
22 14 9 5 3 3 7 355 100 24 15 12 359 2 352 354 352 356 350 339 347 337 1 1 356 355 355 351 348 348 354 355 352 349 358 11 26 62 59 41 19 127 123
20 10 9 8 6 355 10 358 355 2 2 14 358 359 1 339 354 358 356 337 7 355 8 357 355 351 350 350 350 351 344 346 350 355 355 357 357 358 16 27 33 47 66
6 207 14 5 358 354 358 353 351 348 349 348 350 346 1 340 348 351 352 347 1 8 2 355 350 350 347 346 345 345 346 349 350 348 353 353 354 347 351 2 11 346 69
15 9 352 1 1 332 343 345 347 343 348 344 343 353 358 343 338 337 352 3 355 351 349 347 346 344 345 346 342 339 341 346 346 345 348 347 347 343 339 342 332 317 294
8 77 305 340 350 349 347 345 347 345 343 338 340 343 345 340 347 351 352 354 348 348 342 341 338 337 336 337 340 341 340 344 341 342 344 340 343 333 328 328 326 319 284
347 349 315 338 345 348 344 343 332 331 330 326 328 337 336 319 336 335 340 339 340 336 335 335 332 332 331 331 332 332 336 337 337 338 336 333 333 327 325 311 311 302 301
331 344 343 340 335 340 336 324 326 329 328 325 327 332 321 326 331 330 331 334 330 332 331 327 324 327 328 332 331 328 325 324 329 334 330 326 323 319 321 316 313 304 296
327 333 332 333 330 324 324 335 326 330 327 327 329 327 329 328 325 322 320 328 325 328 327 325 325 326 328 331 327 326 325 331 334 326 317 319 316 313 315 312 311 306 302
321 320 323 324 324 318 326 324 323 325 325 323 326 324 331 329 316 312 317 315 316 319 318 316 316 317 322 324 324 324 327 335 324 316 321 310 308 313 307 303 306 305 298
314 314 316 318 319 321 317 317 322 323 318 326 320 322 325 323 326 318 319 314 316 314 316 317 320 321 321 323 319 323 330 321 320 316 312 309 301 306 298 301 309 311 308
309 307 310 311 312 315 313 315 311 311 316 315 314 322 322 327 319 329 323 319 321 319 320 319 318 323 323 322 327 329 322 323 320 319 313 302 297 301 307 307 306 308 304